Lapse_Rate
6.9 6.5 6.5 6.5 6.5 6.5 6.5 6.5 6.5 6.5 6.5 6.5 6.5 6.5 6.5 6.5 6.7 6.4 6.6 6.7 6.9 7.1 7.7 7.8 7.1 6.5 6.8 6.6 6.3 4.7 4.7 4.4 6.3 7.3 7.2 7.1 5.6 4.0 3.6 4.6 4.3 5.2 6.5 5.6
6.5 6.5 6.5 6.5 6.5 6.5 6.5 6.5 6.5 6.5 6.5 6.5 6.5 6.5 6.5 6.5 6.5 6.6 6.7 6.7 6.9 7.1 7.3 7.4 7.3 6.3 5.5 5.7 5.1 5.1 4.7 4.8 6.4 7.7 7.2 6.9 5.7 4.7 4.0 3.9 4.2 5.5 5.8 5.0
6.5 6.5 6.5 6.5 6.5 6.5 6.5 6.5 6.5 6.5 6.5 6.5 6.5 6.5 6.5 6.5 6.6 6.8 6.9 7.0 7.2 7.0 6.9 7.1 7.3 6.1 5.3 5.3 5.6 6.5 5.4 5.6 7.0 7.9 7.4 7.4 6.5 7.1 6.5 6.8 6.3 6.0 5.4 5.0
6.5 6.5 6.5 6.5 6.5 6.5 6.5 6.5 6.5 6.5 6.5 6.5 6.5 6.5 6.5 6.5 6.5 6.5 6.5 6.7 6.8 7.1 7.3 7.1 7.2 6.5 5.9 5.4 5.3 7.1 6.5 6.0 7.3 7.4 8.1 7.3 5.8 6.2 5.9 6.2 6.4 6.5 6.1 5.5
6.5 6.5 6.5 6.5 6.5 6.5 6.5 6.5 6.5 6.5 6.5 6.5 6.5 6.5 6.5 6.5 6.5 6.5 6.5 6.8 7.0 7.0 6.7 6.9 6.8 7.0 6.4 6.0 5.5 6.3 7.0 7.4 6.8 7.1 8.0 7.5 7.4 7.0 6.8 6.7 7.3 6.6 6.5 6.9
6.5 6.9 6.5 6.5 6.5 6.5 6.5 6.5 6.5 6.5 6.5 6.5 6.5 6.5 6.5 6.5 6.5 6.5 6.5 6.9 7.2 7.4 7.6 7.2 6.8 6.7 7.1 6.2 6.1 6.0 6.9 7.4 7.0 7.5 7.7 7.2 7.3 7.3 7.1 6.7 6.5 6.0 5.8 4.9
6.5 6.5 6.5 6.5 6.5 6.5 6.5 6.5 6.5 6.5 6.5 6.5 6.5 6.5 6.5 6.5 6.5 6.5 6.5 6.7 7.1 7.4 7.4 7.6 7.8 6.5 3.9 6.4 6.4 6.5 7.3 7.5 7.4 7.7 7.7 7.3 7.6 7.1 6.4 6.5 6.7 5.9 5.1 3.9
6.5 6.5 6.5 6.5 6.5 6.5 6.5 6.5 6.5 6.5 6.5 6.5 6.5 6.5 6.5 6.5 6.5 6.8 7.0 7.1 7.3 7.4 7.5 7.8 7.9 6.9 1.9 5.6 6.8 7.3 7.2 7.7 7.1 7.7 7.8 7.9 7.7 7.2 7.3 7.1 6.9 5.9 5.0 3.8
6.5 6.5 6.5 6.5 6.5 6.5 6.5 6.5 6.5 6.5 6.5 6.5 6.5 6.5 6.5 6.5 6.5 6.5 6.6 6.9 7.0 7.4 7.6 7.7 7.9 4.8 1.1 4.9 6.9 6.8 6.4 7.3 6.6 8.2 7.8 7.6 7.4 7.4 7.3 6.8 6.1 5.7 4.9 4.8
6.5 6.5 6.5 6.5 6.5 6.5 6.5 6.5 6.5 6.5 6.5 6.5 6.5 6.5 6.5 6.5 6.5 6.5 6.5 6.6 7.1 7.5 7.6 7.6 6.7 4.0 3.6 5.8 4.0 3.7 5.3 7.1 6.4 8.0 7.2 7.1 7.7 7.5 7.0 6.6 5.8 5.6 5.9 5.3
6.5 6.5 6.5 6.5 6.5 6.5 6.5 6.5 6.5 6.5 6.5 6.5 6.5 6.5 6.5 6.5 6.5 6.5 6.5 6.9 7.1 7.4 7.6 7.1 4.4 2.6 2.0 4.8 6.6 5.9 5.9 6.5 6.5 6.7 6.9 6.6 7.7 7.7 7.3 7.2 7.0 6.3 5.3 5.5
6.5 6.5 6.5 6.5 6.5 6.5 6.5 6.5 6.5 6.5 6.5 6.5 6.5 6.5 6.5 6.5 6.5 6.5 6.6 7.0 7.4 7.6 7.8 6.3 4.3 2.3 1.0 0.8 2.1 7.2 6.3 6.0 6.2 5.7 6.7 6.8 7.2 7.6 7.7 7.4 7.0 6.8 6.7 6.5
6.5 6.5 6.5 6.5 6.5 6.5 6.5 6.5 6.5 6.5 6.5 6.5 6.5 6.5 6.5 6.5 6.5 6.7 6.7 7.1 7.4 7.6 7.7 7.1 4.4 3.0 1.4 0.4 0.3 0.9 5.8 6.1 5.6 5.7 5.9 6.1 6.7 6.7 6.9 6.8 6.9 7.3 7.0 6.8
6.7 6.5 6.5 6.5 6.5 6.5 6.5 6.5 6.5 6.5 6.5 6.5 6.5 6.5 6.5 6.5 6.5 6.5 6.9 7.2 7.4 7.6 7.7 7.6 4.9 3.7 3.0 1.1 -0.1 -0.3 1.0 5.2 5.4 5.7 6.2 6.8 6.5 6.2 6.2 6.1 6.5 5.9 6.1 6.1
6.5 6.5 6.5 6.5 6.5 6.5 6.5 6.5 6.5 6.5 6.5 6.5 6.5 6.5 6.5 6.5 6.5 6.6 7.1 7.3 7.4 7.5 7.6 7.6 6.0 4.3 3.5 2.3 0.5 -0.4 -0.4 0.9 3.1 3.4 3.4 3.3 3.0 3.7 3.4 2.8 3.1 2.8 2.6 1.8
6.5 6.5 6.5 6.5 6.5 6.5 6.5 6.5 6.5 6.5 6.5 6.5 6.5 6.5 6.5 6.9 7.1 7.0 7.2 7.3 7.3 7.3 7.4 7.5 6.2 5.0 3.6 3.5 2.4 1.1 0.4 -0.0 0.6 1.0 1.3 1.2 1.2 1.0 0.7 0.2 -0.0 -0.1 -0.8 -0.9
6.5 6.5 6.5 6.5 6.5 6.5 6.5 6.5 6.5 6.5 6.5 6.5 6.5 6.5 6.5 6.5 6.5 6.9 6.9 7.2 7.1 7.2 7.0 7.0 6.5 5.7 4.6 3.2 2.7 1.6 1.9 1.3 0.3 -0.1 0.1 0.1 -0.2 -0.6 -0.8 -1.3 -1.8 -1.9 -2.7 -2.6
6.5 6.5 6.5 6.5 6.5 6.5 6.5 6.5 6.5 6.5 6.5 6.5 6.5 6.5 6.5 6.7 6.9 7.1 7.3 7.2 7.1 6.6 6.8 6.7 5.9 5.5 4.9 3.3 2.5 2.9 2.5 2.0 1.2 0.8 0.8 -0.4 -1.2 -1.6 -1.8 -2.1 -2.7 -3.0 -3.1 -3.2
6.5 6.5 6.5 6.5 6.5 6.5 6.5 6.5 6.5 6.5 6.5 6.5 6.5 6.5 6.7 7.1 7.1 7.0 7.3 6.6 6.3 6.0 5.6 5.6 5.4 5.8 4.6 3.4 2.4 2.6 2.3 2.3 2.3 1.9 1.7 2.7 -0.3 -1.2 -1.5 -1.9 -2.3 -2.5 -2.6 -3.0
6.5 6.5 6.5 6.5 6.5 6.5 6.5 6.5 6.8 6.5 6.5 6.5 6.7 6.5 6.5 6.8 6.5 6.5 6.8 6.8 6.5 6.1 5.6 5.0 4.6 4.7 5.0 3.8 2.5 1.9 2.4 2.4 2.2 1.9 2.3 3.0 2.3 1.3 0.8 0.8 0.9 0.7 -0.5 -0.9
6.5 6.5 6.5 6.5 6.5 6.5 6.5 6.5 6.9 6.5 6.5 6.8 7.1 7.1 7.0 6.5 6.7 6.8 6.5 6.4 6.2 6.1 6.3 5.7 5.0 4.8 4.2 3.7 4.2 3.1 2.3 3.4 3.5 2.3 2.2 2.5 3.0 2.0 2.0 2.3 2.4 2.3 2.2 0.6
6.5 6.5 6.5 6.5 6.5 6.5 6.9 6.7 6.5 6.6 7.0 7.1 7.3 7.4 7.2 7.1 6.8 6.7 6.7 6.9 6.8 6.7 6.8 6.3 5.2 4.9 5.0 4.4 3.7 4.6 4.8 4.5 3.6 2.6 2.7 3.2 2.5 2.9 3.0 3.0 3.9 4.1 3.6 2.4
6.5 6.5 6.5 6.5 6.5 6.6 7.2 6.9 7.5 7.5 7.1 7.2 7.4 7.5 7.5 7.3 6.9 6.9 6.9 7.0 6.8 6.9 6.8 7.0 6.7 6.3 5.6 5.1 5.5 5.0 4.9 4.2 3.1 2.5 2.3 2.6 3.3 2.7 2.6 1.4 3.1 4.4 3.8 3.7
6.5 6.7 6.5 6.5 6.5 6.6 7.1 7.6 7.8 7.7 7.3 7.5 7.6 7.2 7.4 7.2 7.1 7.0 7.1 7.3 7.4 7.2 7.2 7.2 6.4 5.6 5.4 5.4 6.2 6.0 5.5 4.8 3.3 2.7 2.8 1.7 1.7 1.6 1.8 1.4 1.2 1.4 2.9 2.5
6.6 6.6 6.5 6.5 6.5 6.9 7.3 7.5 7.6 7.6 7.7 7.5 7.2 6.9 6.9 7.4 7.1 7.0 7.1 7.1 7.1 7.2 7.2 7.0 6.5 5.6 4.9 4.9 4.5 5.0 7.0 6.9 5.4 4.6 4.1 3.3 2.2 1.6 1.0 0.6 1.3 1.2 1.8 2.6
6.7 6.5 6.5 6.5 6.8 6.8 6.9 7.6 7.7 7.4 7.3 7.7 7.5 6.8 6.7 6.7 6.5 6.2 6.4 6.7 6.6 6.5 6.6 6.5 6.3 5.5 5.1 4.9 4.6 4.3 4.8 5.5 5.8 6.0 6.3 6.1 4.7 3.3 2.8 1.7 1.0 2.3 2.3 2.2
Wind_Speed
14 11 15 18 20 21 20 22 23 21 23 21 21 21 21 21 22 19 22 19 20 19 15 13 11 13 16 16 13 22 18 16 12 9 8 6 7 7 5 4 6 5 8 8
14 16 17 19 20 18 19 18 20 21 21 18 23 26 23 21 23 22 21 18 18 19 15 14 14 9 9 9 9 20 18 17 13 9 8 7 7 7 6 5 6 6 7 9
19 16 16 20 18 18 19 17 17 19 18 22 21 24 26 26 29 23 21 20 19 20 12 11 13 10 9 9 9 16 18 16 14 11 9 6 6 5 7 8 8 9 9 9
19 18 22 18 16 16 20 16 18 17 16 13 17 17 20 19 19 14 7 4 5 8 10 11 14 10 10 8 9 12 17 16 13 14 11 12 10 8 7 6 6 9 13 12
17 17 19 20 20 17 20 15 15 16 14 17 19 13 14 18 20 14 9 8 12 14 7 9 9 7 8 13 11 13 16 17 16 15 12 10 9 6 7 6 8 7 5 6
20 20 18 16 15 16 15 14 16 14 13 15 19 17 15 16 5 8 12 11 11 11 14 16 13 7 11 10 15 15 16 17 17 15 11 11 9 9 7 6 6 5 4 3
20 21 21 19 15 15 13 11 9 7 9 12 10 13 16 9 8 8 8 9 9 10 11 14 15 16 18 9 17 16 17 16 15 14 11 11 10 7 9 7 7 7 5 4
16 17 14 18 24 17 18 16 9 9 9 10 2 7 7 13 11 8 9 10 11 10 10 13 14 17 17 16 16 15 16 15 15 12 11 10 7 4 5 7 7 6 6 5
8 13 12 9 16 18 17 7 15 14 17 11 10 6 10 9 10 8 12 12 11 9 9 12 15 17 19 12 14 15 12 10 13 13 11 10 7 7 6 8 8 6 7 6
8 14 14 15 15 18 21 13 10 9 4 7 12 14 5 9 4 12 12 12 11 11 11 12 12 15 16 9 9 8 9 8 8 9 7 8 6 6 8 9 10 9 8 8
9 7 13 13 7 18 11 15 6 3 8 4 4 3 11 9 9 9 10 11 12 12 11 12 12 13 14 13 5 6 7 9 10 10 7 9 6 7 7 7 8 8 7 7
6 5 9 22 15 21 27 14 17 4 5 7 8 7 11 15 11 7 13 13 13 13 12 12 12 14 14 14 16 5 5 6 6 3 6 7 5 5 6 6 5 6 6 9
5 2 7 11 14 6 12 7 10 13 10 7 3 2 8 15 11 15 15 14 12 13 14 13 13 13 14 14 14 16 1 5 4 6 7 6 5 5 5 5 5 5 7 6
3 6 11 10 18 17 10 25 17 9 3 5 6 7 4 12 15 18 17 15 14 14 14 13 12 12 13 14 14 16 15 4 6 6 5 4 7 6 5 5 5 6 6 5
1 7 14 19 21 22 20 24 7 17 15 3 5 6 15 17 17 17 16 14 15 15 15 14 13 12 13 14 14 15 15 13 10 11 10 9 11 9 10 9 10 11 11 11
4 6 15 21 18 22 9 15 7 5 6 14 19 12 12 13 13 16 14 13 15 15 13 13 14 14 14 14 13 14 14 13 12 11 10 10 11 11 10 10 11 12 12 12
11 6 8 9 16 13 10 16 12 8 10 9 10 9 13 12 12 11 11 13 13 11 14 13 13 13 12 12 12 13 12 13 13 11 10 11 11 12 11 10 12 11 12 12
12 9 6 10 14 6 4 10 8 20 16 16 13 14 12 10 9 11 11 11 11 11 12 11 10 11 10 11 13 12 13 13 13 13 12 10 12 13 12 11 12 12 11 13
12 9 5 6 1 11 10 9 7 7 11 16 14 14 13 8 9 12 10 10 10 10 8 9 10 8 8 12 11 13 13 14 15 14 12 10 12 13 13 13 12 11 12 13
13 14 9 3 1 2 4 12 9 7 5 15 14 13 12 5 2 3 8 7 9 9 9 9 9 7 11 11 11 15 14 13 14 13 11 10 11 14 13 11 11 10 12 13
9 7 11 8 1 6 14 16 10 1 5 12 12 10 13 7 6 6 6 8 8 7 8 9 10 10 12 12 9 13 13 13 11 11 11 10 11 13 11 11 8 8 9 13
6 4 2 3 1 5 21 9 6 4 10 9 9 10 12 11 9 7 7 8 10 10 10 11 10 12 11 11 11 12 13 8 9 12 13 13 13 10 8 10 8 7 7 12
1 4 3 7 4 8 13 13 9 8 8 9 10 10 9 9 10 9 8 10 10 10 10 10 10 11 10 10 8 13 12 11 13 14 13 12 12 12 12 13 10 7 9 8
8 16 4 5 8 12 12 12 11 11 11 11 11 10 9 9 8 8 9 9 9 9 9 8 9 11 11 12 10 10 8 8 11 12 11 12 12 13 12 11 10 10 8 9
6 8 8 6 8 10 12 11 10 9 11 12 12 10 9 9 11 10 10 11 10 10 9 10 10 11 12 12 12 12 10 10 9 9 8 10 10 11 12 14 10 10 12 11
6 5 5 4 8 4 8 8 10 9 9 10 11 12 10 10 11 12 10 9 9 9 9 10 11 11 11 11 12 12 11 10 9 9 7 7 7 8 7 9 10 23 22 23
Wind_Direction
209 225 235 230 232 241 265 279 276 284 292 310 298 291 273 274 271 251 252 260 262 251 255 260 252 213 216 217 213 156 154 161 163 183 168 172 166 160 146 147 166 185 188 176
242 224 248 249 256 256 267 264 273 286 289 280 277 272 277 268 260 250 247 248 252 255 238 226 255 218 231 223 180 154 154 161 168 181 163 185 168 170 162 163 172 183 173 174
250 251 234 240 250 257 249 255 268 275 280 284 290 280 267 259 257 244 243 242 246 257 245 222 246 222 218 185 150 150 154 164 172 169 163 183 174 144 163 180 179 186 191 185
257 249 260 250 247 262 261 252 255 270 276 272 282 287 288 292 294 256 211 234 256 279 240 242 232 206 213 171 153 161 158 168 168 169 191 178 181 174 179 174 187 187 188 184
258 253 248 254 260 245 258 286 286 290 282 282 278 271 280 280 281 256 84 58 16 4 323 235 256 239 225 174 167 172 161 169 166 176 201 174 180 183 165 183 170 144 138 156
265 265 266 253 253 255 266 271 259 263 263 260 263 262 265 266 32 64 71 53 28 3 355 349 356 282 246 190 174 169 161 172 167 178 195 172 175 190 163 145 139 134 118 126
240 233 238 241 239 251 233 239 249 260 239 253 280 287 267 161 105 98 83 60 35 10 12 346 348 339 339 288 173 166 162 167 166 183 185 170 187 181 143 155 149 144 148 150
278 271 251 214 224 236 232 217 223 241 250 283 299 273 316 110 121 106 85 66 46 24 359 345 344 338 334 306 149 157 162 167 161 180 181 180 171 164 148 165 143 153 169 153
316 282 339 298 233 213 232 231 253 277 285 286 273 208 290 312 113 108 76 64 46 28 5 350 349 347 325 314 151 150 155 150 160 184 189 169 158 159 143 134 138 157 151 170
309 303 279 255 318 226 224 229 221 231 247 250 258 241 269 150 147 89 67 63 42 25 13 1 360 354 350 69 87 91 139 137 164 183 192 148 160 140 131 145 153 169 166 164
359 280 280 293 204 247 213 231 212 232 267 272 302 316 1 53 338 73 74 67 47 30 16 3 3 357 356 2 86 139 163 157 172 209 146 141 170 152 142 157 156 160 160 156
42 303 284 273 259 238 302 225 206 208 225 245 259 287 104 283 213 109 89 72 52 37 21 9 8 5 7 10 359 183 165 147 188 153 127 118 119 157 138 142 143 137 139 159
7 286 307 271 250 160 260 195 246 234 263 217 255 100 36 293 327 79 77 63 57 37 24 14 10 10 9 7 5 355 79 141 108 130 103 121 113 121 121 123 137 134 135 141
73 257 247 272 305 316 290 283 203 184 256 215 240 333 278 359 7 64 57 52 48 39 29 18 9 11 6 9 10 4 355 13 96 107 130 126 131 120 112 98 115 106 102 96
103 271 274 273 291 293 285 288 262 211 219 232 341 327 50 34 37 37 39 38 40 33 25 18 11 11 10 12 10 10 359 12 52 78 73 68 60 60 72 63 68 72 68 63
312 279 307 283 277 292 271 267 125 337 257 233 236 93 85 53 38 37 35 40 40 31 25 20 20 19 15 16 16 15 7 10 38 55 70 68 69 68 62 61 65 72 70 67
282 287 309 278 306 298 258 208 181 189 69 52 51 33 27 45 51 37 39 46 44 33 33 21 27 22 18 21 20 23 15 17 33 45 45 70 69 69 67 66 69 69 73 73
246 256 266 289 307 225 101 81 87 76 44 30 41 39 42 81 82 56 43 54 49 42 35 26 28 17 17 30 37 35 33 34 33 36 39 54 74 75 70 68 71 72 75 76
204 230 259 247 150 104 74 36 45 35 51 28 18 20 17 123 118 62 55 56 54 49 43 43 28 14 20 38 41 46 41 44 40 35 29 29 74 74 71 68 68 74 78 76
189 206 235 306 91 107 45 332 12 322 85 20 16 12 355 359 250 73 57 57 61 53 45 43 37 35 34 28 38 58 44 38 43 36 28 18 56 73 70 66 63 72 80 78
199 231 253 288 131 92 341 338 294 275 35 30 29 31 36 67 62 91 82 72 63 56 51 53 52 49 41 31 30 55 60 43 39 41 42 35 26 61 61 66 61 63 74 91
188 246 267 232 287 69 352 37 54 15 44 48 57 67 80 83 77 65 62 65 58 50 53 52 54 48 44 43 42 49 49 32 41 55 48 37 36 41 52 68 62 69 61 67
99 60 16 20 70 69 49 67 58 67 72 63 77 75 85 87 76 66 64 62 58 54 55 52 55 61 54 46 43 63 50 46 48 48 51 42 39 47 44 53 46 52 62 70
342 12 54 129 59 63 56 67 57 59 64 64 76 84 86 92 88 78 67 60 62 55 60 67 62 58 52 40 42 75 73 66 70 67 55 60 48 50 48 53 49 45 32 49
353 342 347 96 71 96 58 54 67 72 78 77 74 78 83 85 76 71 64 56 53 54 53 54 61 63 55 45 36 32 45 62 68 82 86 79 70 56 58 58 52 57 49 51
1 360 12 34 15 21 62 67 74 74 74 91 91 81 74 84 84 77 67 59 59 59 56 57 57 57 56 52 46 36 35 45 57 57 52 65 79 85 72 64 64 60 63 61